Погода в Залесове

Россия / Алтайский край     53°59′23″N   84°44′50″E
темп.,
°C
ветер,
м/с
пор.,
м/с
влажн.,
%
обл.,
%
осадки,
мм/ч
давл.,
гПа
погр.,
м
11 апреля, вс
вс1101:000св410885 0.0 1039228
04:00−1св38875 0.0 1039156
07:00−2св36865 0.0 1040114
10:00+2св249327 0.0 1040144
13:00+4св228966 0.1 1039232
16:00+5с238658 0.0 1038281
19:00+2св2492100 0.0 103960
22:00−2св229288 0.0 103929
12 апреля, пн
пн1201:00−3ссв22945 0.0 103821
04:00−3ссв119427 0.0 103713
07:00−3юв0193100 0.0 103714
10:00+1юз1284100 0.0 1036141
13:00+3юз238435 0.0 1034250
16:00+4зюз358173 0.0 1032321
19:00+2юз3596100 0.0 1032151
22:00+1зюз2699100 0.0 1031218
13 апреля, вт
вт1301:00+1з3795100 0.0 1030285
04:000з2595100 0.2 1029204
07:000сз2697100 0.6 1030313
10:00+3с368799 0.0 1031641
13:00+6сз45605 0.0 10321223
16:00+6сз56575 0.0 10321262
19:00+3зсз47815 0.0 1033402
22:000з369485 0.0 1035202
14 апреля, ср
ср1401:00−1зюз379610 0.0 1034199
04:00−1зюз379617 0.0 1034205
07:00−1зюз389660 0.0 1034232
10:00+3зюз478379 0.0 1034464
13:00+6з577091 0.0 10321014
16:00+8з6865100 0.0 10301024
19:00+6зюз4977100 0.0 1028513
22:00+4зюз41180100 0.0 1027358
15 апреля, чт
чт1501:00+3зюз398594 0.0 1026285
04:00+2зюз3891100 0.3 1025242
07:00+2зюз2595100 0.3 1024197
10:00+4юз2492100 0.0 1024222
13:00+7юз247946 0.0 1023411
16:00+8зюз347772 0.0 1022491
19:00+8ююз247921 0.0 1021238
22:00+6ю22875 0.0 102119